Погода в Обском

Россия / Новосибирская область     55°28′27″N   83°26′54″E
темп.,
°C
ветер,
м/с
пор.,
м/с
влажн.,
%
обл.,
%
осадки,
мм/ч
давл.,
гПа
погр.,
м
6 марта, сб
сб601:00−5юз101887100 1.8 10151136
04:00−5юз91692100 0.5 10151035
07:00−6юз81692100 1.4 1015886
10:00−6ююз91786100 0.6 1014962
13:00−5ююз101884100 0.6 1012969
16:00−5юз111991100 0.8 10101147
19:00−4юз101888100 1.3 10091132
22:00−3юз91789100 0.2 10091025
7 марта, вс
вс701:00−2зюз61295100 2.3 1010907
04:00−7зюз51386100 0.8 1010508
07:00−11зюз5128992 0.8 1014383
10:00−11зюз511870 0.0 1016436
13:00−8юз598725 0.0 1018537
16:00−6зюз598463 0.0 1019697
19:00−10юз358932 0.0 102098
22:00−13ююз348943 0.0 102261
8 марта, пн
пн801:00−13ю338365 0.0 102242
04:00−11ююв4886100 0.0 1020153
07:00−8ююв51194100 0.0 1016275
10:00−4ю71588100 0.0 1013582
13:00−2ююз81584100 0.0 1010685
16:00−1ююз81687100 0.1 1006948
19:00−3юз81593100 0.7 1008958
22:00−4з71285100 0.3 1012730
9 марта, вт
вт901:00−11зюз5129165 0.3 1016328
04:00−12зюз5119293 0.0 1019390
07:00−13юз5119296 0.0 1021377
10:00−14юз599170 0.0 1023321
13:00−10ююз588582 0.0 1024408
16:00−7ююз5108033 0.0 1022624
19:00−9ю4118649 0.0 1020327
22:00−9ю41291100 0.0 1018339
10 марта, ср
ср1001:00−5юз41295100 0.2 1015506
04:00−6юз3996100 0.3 1014256
07:00−8зюз4119093 0.4 1015322
10:00−9юз5109141 0.0 1016361
13:00−6юз488871 0.0 1016441
16:00−4юз3686100 0.0 1015509
19:00−6ю2290100 0.0 101321
22:00−6юв2392100 0.0 101050